{"data":{"norad_id":55806,"intl_designator":"2023-029L","name":"ONEWEB-0642","alt_names":[],"object_type":"PAYLOAD","status":"ACTIVE","operator":null,"country":"UK","launch_date":"2023-03-09","launch_site_code":"AFETR","launch_vehicle":null,"mission":null,"orbit_class":"UNKNOWN","rcs_meters":null,"size_class":null,"mass_kg":null,"dimensions":null,"purposes":["comms"],"wikipedia_slug":null,"has_3d_model":false,"image_url":null,"decayed_at":null,"tle_current":{"epoch":"2026-09-20T00:30:04.604832Z","epoch_age_seconds":63445,"freshness":"FRESH","line1":"1 55806U 23029L   26263.02088663  .00000095  00000+0  20517-3 0  9993","line2":"2 55806  87.9101 286.0804 0001516  65.9836 294.1455 13.19725516171414","mean_motion":13.19725516,"eccentricity":0.0001516,"inclination_deg":87.9101,"raan_deg":286.0804,"arg_perigee_deg":65.9836,"mean_anomaly_deg":294.1455,"bstar":0.00020517,"rev_number":17141,"period_min":109.11359843709,"perigee_km":1184.6218923015,"apogee_km":1186.9152684735,"semimajor_km":7563.9055803875,"source":"CELESTRAK","updated_at":"2026-09-20T09:00:44.760867Z"}}}